Temperature
0 -1 -2 -2 -3 -3 -4 -5 -6 -6 -6 -5 -6 -6 -6 -6 -6 -6 -6 -6 -6 -6 -6 -5 -5 -5 -4 -4 -4 -3 -3 -3 -3 -3 -2 -2 -1 -1
-1 -2 -3 -3 -3 -3 -4 -5 -6 -7 -7 -6 -6 -6 -6 -7 -7 -7 -7 -7 -7 -7 -6 -6 -6 -5 -5 -5 -4 -4 -4 -4 -4 -3 -3 -2 -2 -1
-2 -3 -4 -4 -4 -5 -5 -6 -7 -7 -7 -7 -7 -7 -7 -7 -7 -7 -7 -7 -8 -7 -7 -7 -6 -6 -6 -5 -5 -5 -5 -5 -5 -4 -4 -3 -3 -2
-3 -4 -5 -5 -5 -6 -6 -7 -7 -7 -8 -7 -7 -7 -7 -7 -7 -7 -8 -8 -8 -8 -8 -7 -7 -7 -7 -6 -6 -6 -6 -6 -5 -5 -5 -4 -3 -3
-5 -5 -6 -6 -7 -7 -7 -8 -8 -8 -8 -8 -8 -8 -7 -7 -8 -8 -8 -9 -9 -9 -9 -8 -8 -8 -8 -7 -7 -7 -7 -6 -6 -6 -5 -5 -4 -4
-5 -6 -7 -7 -7 -8 -8 -8 -8 -8 -8 -8 -8 -8 -8 -8 -8 -9 -9 -9 -9 -9 -9 -9 -9 -9 -8 -8 -8 -8 -8 -7 -7 -6 -6 -5 -5 -4
-6 -7 -7 -8 -8 -8 -8 -8 -8 -8 -8 -8 -8 -8 -8 -9 -9 -9 -9 -9 -9 -9 -9 -9 -10 -10 -10 -9 -9 -9 -8 -8 -7 -7 -6 -5 -5 -4
-7 -7 -8 -8 -9 -8 -9 -9 -8 -8 -8 -8 -8 -9 -9 -9 -9 -10 -10 -10 -10 -10 -10 -10 -10 -10 -10 -10 -9 -9 -8 -8 -7 -7 -6 -6 -5 -5
-7 -8 -8 -9 -9 -9 -9 -9 -9 -9 -9 -9 -9 -9 -10 -10 -10 -10 -10 -10 -10 -10 -11 -10 -10 -10 -10 -10 -9 -9 -9 -8 -8 -7 -7 -6 -6 -5
-8 -9 -9 -9 -9 -9 -9 -9 -9 -9 -9 -10 -10 -10 -10 -10 -10 -10 -10 -11 -11 -11 -11 -11 -11 -10 -10 -9 -8 -8 -8 -8 -8 -7 -7 -6 -6 -6
-8 -9 -9 -9 -9 -9 -9 -9 -9 -10 -10 -10 -10 -10 -10 -10 -11 -11 -11 -11 -11 -11 -10 -11 -10 -10 -10 -9 -8 -8 -8 -8 -8 -7 -7 -7 -6 -6
-9 -9 -9 -10 -9 -9 -9 -10 -10 -10 -10 -10 -10 -9 -10 -10 -11 -11 -11 -12 -12 -11 -10 -11 -11 -11 -10 -9 -9 -9 -9 -8 -8 -8 -7 -7 -7 -6
-9 -9 -10 -10 -9 -9 -10 -11 -11 -10 -10 -10 -10 -10 -10 -10 -10 -10 -11 -11 -12 -11 -10 -10 -10 -10 -10 -10 -9 -8 -8 -8 -8 -7 -7 -7 -7 -6
-10 -10 -10 -10 -10 -10 -11 -11 -11 -11 -11 -11 -12 -11 -11 -10 -10 -10 -10 -10 -10 -10 -9 -10 -10 -10 -10 -10 -9 -8 -7 -7 -6 -6 -5 -5 -5 -6
-10 -10 -10 -11 -11 -11 -11 -11 -11 -11 -12 -12 -12 -12 -11 -10 -10 -10 -9 -9 -9 -9 -9 -9 -9 -9 -9 -9 -9 -8 -7 -5 -3 -3 -3 -3 -3 -3
-10 -10 -11 -11 -11 -11 -11 -11 -11 -12 -12 -12 -12 -11 -10 -10 -10 -10 -10 -10 -10 -8 -8 -8 -9 -9 -8 -7 -7 -7 -6 -5 -3 -2 -1 -1 -1 -1
-11 -11 -11 -11 -11 -11 -11 -11 -12 -12 -12 -11 -11 -11 -11 -10 -10 -10 -10 -10 -10 -10 -9 -8 -8 -7 -7 -6 -6 -5 -4 -3 -2 -1 -1 -0 -0 -0
-11 -12 -12 -12 -13 -13 -12 -12 -12 -11 -11 -11 -10 -11 -11 -11 -10 -10 -10 -10 -10 -9 -9 -8 -8 -6 -5 -5 -5 -5 -3 -2 -2 -2 -1 -1 -0 0
-12 -12 -13 -13 -13 -12 -12 -12 -12 -11 -10 -10 -10 -10 -10 -10 -10 -10 -9 -9 -9 -9 -8 -8 -8 -7 -8 -7 -5 -4 -3 -3 -2 -2 -2 -2 -1 -1
-12 -13 -13 -12 -12 -12 -12 -12 -11 -10 -10 -10 -9 -9 -9 -10 -9 -9 -9 -9 -9 -8 -8 -7 -7 -7 -7 -7 -6 -4 -4 -3 -3 -3 -3 -2 -2 -1
-13 -12 -12 -12 -11 -11 -11 -11 -10 -10 -9 -9 -9 -8 -9 -9 -9 -9 -9 -8 -8 -8 -8 -8 -7 -7 -6 -5 -5 -5 -4 -4 -3 -3 -3 -3 -3 -3
-12 -12 -11 -11 -11 -11 -11 -10 -10 -9 -9 -8 -8 -8 -8 -8 -8 -8 -8 -8 -8 -8 -8 -7 -7 -6 -5 -5 -5 -5 -5 -4 -4 -4 -4 -3 -3 -3
-12 -12 -11 -11 -11 -10 -10 -10 -9 -9 -8 -8 -8 -8 -8 -8 -8 -8 -8 -8 -8 -8 -8 -7 -7 -6 -6 -6 -6 -5 -5 -5 -5 -5 -4 -4 -4 -4
Wind_Speed
6 5 4 5 6 7 7 8 11 18 19 9 6 6 6 8 18 17 15 26 33 34 35 36 35 35 35 34 33 33 34 34 35 35 36 36 36 36
4 6 6 6 7 7 7 8 9 14 18 13 11 9 10 14 21 16 15 30 31 33 35 35 35 34 34 34 35 35 35 36 36 37 37 36 36 36
6 7 8 8 8 8 8 9 9 11 17 20 15 12 11 12 13 9 13 11 15 30 33 34 34 34 35 36 36 37 37 37 37 37 37 36 36 36
8 8 8 10 10 10 9 10 11 11 15 21 19 15 14 13 13 11 14 15 12 27 32 33 34 35 36 37 37 37 37 37 36 36 36 36 36 36
8 8 9 10 12 11 12 13 12 13 12 17 20 17 15 12 13 15 15 12 17 21 27 30 32 34 35 36 36 36 36 36 35 35 35 35 35 35
8 8 9 10 12 13 13 12 13 14 14 16 17 16 15 12 12 15 17 11 13 16 21 24 28 32 33 34 35 35 35 35 35 35 34 34 34 35
8 8 10 16 21 18 17 15 16 16 16 16 17 17 16 14 15 15 19 17 14 12 13 14 15 14 17 26 30 33 34 34 34 34 34 33 33 33
9 9 11 15 20 26 29 28 26 21 19 18 17 18 19 17 16 17 19 20 18 9 11 16 13 16 15 14 26 34 35 35 35 35 35 34 33 32
10 11 14 16 20 14 22 27 24 28 27 20 19 19 20 19 20 21 19 20 20 16 16 19 14 16 15 19 32 34 36 36 36 36 35 35 34 33
10 11 12 13 16 21 19 18 16 15 18 16 15 17 17 17 17 19 20 19 18 14 13 18 16 17 18 16 29 34 35 36 35 35 34 33 32 32
10 10 14 13 25 31 22 19 16 14 21 26 26 25 30 30 24 16 15 15 17 16 11 12 16 17 17 17 21 30 32 32 32 33 32 31 30 29
9 10 18 23 28 30 19 14 16 18 17 17 19 22 19 20 24 16 14 15 16 14 9 8 14 13 12 10 10 12 17 26 32 33 32 32 30 20
13 11 12 27 29 28 24 14 21 22 15 15 15 15 14 13 13 14 14 13 15 15 14 12 14 14 13 13 12 13 14 15 16 20 25 29 29 24
13 12 15 27 28 27 20 22 27 22 13 14 14 14 14 14 14 15 17 16 16 19 19 18 15 15 16 17 15 11 12 14 14 15 14 19 22 27
12 21 24 25 24 18 22 26 21 13 13 13 14 14 12 13 14 14 15 15 16 16 15 16 16 14 13 14 12 14 15 13 12 11 10 9 9 11
12 15 21 21 19 19 19 16 12 12 14 13 14 14 13 12 13 13 14 14 13 14 11 12 13 14 12 13 13 15 15 10 11 10 5 2 4 7
15 7 9 11 11 12 13 12 12 13 14 13 14 14 15 14 14 12 12 13 13 13 13 11 11 11 11 10 9 13 13 11 9 9 6 6 5 3
16 11 12 12 13 14 14 15 14 14 13 14 14 14 14 14 15 14 12 12 13 13 12 12 12 9 6 5 7 11 11 9 10 11 10 10 11 9
11 11 12 12 13 13 13 13 14 14 13 13 13 14 14 13 13 13 13 12 12 12 12 11 10 8 8 9 10 15 12 10 11 12 13 12 13 13
10 11 12 12 13 13 13 13 14 14 13 13 14 13 13 13 13 13 12 12 12 11 11 10 9 9 7 7 7 8 18 13 10 12 12 12 13 17
11 12 12 12 12 13 13 13 13 14 14 14 13 13 13 13 13 12 11 15 12 9 10 9 9 14 8 6 5 8 11 19 20 13 9 10 13 15
12 13 13 13 13 13 13 13 13 14 14 13 13 13 12 12 13 13 11 10 9 8 7 7 8 8 6 7 8 8 10 12 18 27 28 22 12 11
12 13 13 13 13 12 12 13 15 14 14 13 13 12 13 13 12 10 10 9 8 7 6 6 7 6 7 7 7 8 12 13 12 15 18 26 29 29
Wind_Direction
299 299 300 295 297 294 295 298 303 307 306 297 290 262 264 272 287 292 284 293 297 297 296 294 291 288 286 285 285 285 286 285 284 282 279 275 273 271
291 297 298 298 299 296 294 293 289 293 298 300 301 289 283 293 295 292 286 294 297 297 295 294 291 289 287 286 285 285 285 284 283 280 278 275 273 271
293 300 296 301 304 304 298 294 290 289 294 300 301 299 287 284 288 272 279 278 286 294 295 294 293 292 290 289 287 286 285 284 282 280 278 276 274 272
288 291 296 311 307 304 300 295 293 287 289 297 302 303 297 293 293 289 298 297 290 293 293 293 292 292 291 289 288 286 284 281 280 278 276 274 272 271
283 285 292 302 304 303 299 296 294 295 292 296 299 300 298 299 300 299 295 289 291 293 293 292 291 290 289 288 287 286 284 282 280 277 275 272 270 269
279 278 285 294 298 300 301 296 301 302 298 296 297 299 300 299 299 304 304 293 292 293 290 288 289 290 289 288 287 286 284 282 278 275 272 269 266 264
287 282 289 305 309 309 308 309 307 303 303 303 302 303 304 307 306 305 302 302 292 286 287 285 286 282 283 283 283 282 280 278 276 273 272 270 267 264
306 302 300 305 307 313 312 308 307 307 307 305 305 304 305 305 304 302 303 303 301 293 287 292 288 285 282 277 279 280 279 278 277 275 274 272 270 267
309 307 311 313 315 302 302 308 307 305 305 305 303 303 303 304 304 304 302 300 298 301 299 294 290 286 284 282 284 283 282 280 278 275 271 268 266 264
300 298 299 303 308 311 310 310 306 305 304 303 297 299 302 303 301 302 301 299 295 292 289 291 293 289 288 283 284 281 280 279 277 274 270 265 261 258
297 298 308 307 309 315 318 316 316 311 311 310 310 310 309 309 308 307 305 304 301 299 292 286 290 292 289 284 280 280 279 279 278 275 272 267 261 256
306 300 313 317 316 322 324 323 319 314 317 319 315 311 306 304 308 307 302 299 298 299 292 285 293 300 298 275 266 273 277 278 277 274 270 265 260 254
320 318 315 320 324 328 329 322 314 321 325 318 312 310 309 309 308 305 300 295 294 291 293 297 295 295 292 297 295 284 277 276 275 270 267 260 253 243
319 317 318 325 329 330 328 321 325 330 322 315 314 314 315 312 310 306 301 295 288 286 289 292 292 295 299 299 301 297 292 286 278 271 261 252 245 234
316 321 326 329 330 328 323 326 330 324 318 318 317 314 310 305 306 306 304 299 294 289 286 287 291 296 294 294 294 295 305 303 294 280 264 239 221 210
319 324 329 328 328 326 326 325 323 318 321 317 314 311 310 309 310 311 311 313 311 308 299 290 294 298 298 289 286 294 302 301 307 310 299 263 193 188
333 328 326 328 328 326 325 324 324 324 322 318 315 314 314 314 313 313 310 312 312 314 320 320 315 306 287 277 294 307 315 321 334 351 7 32 46 89
338 330 327 326 324 324 323 323 323 322 320 317 315 313 313 314 314 315 315 316 317 319 322 324 330 332 328 296 294 323 339 350 2 14 26 38 39 35
336 326 324 322 320 319 319 318 317 316 315 313 312 312 312 312 313 315 318 321 321 323 325 327 334 338 342 343 335 345 359 5 15 28 33 38 43 41
329 324 321 319 317 316 316 315 314 314 314 313 311 310 311 312 313 315 317 320 324 327 329 334 340 343 335 322 318 338 7 21 22 28 32 38 46 47
326 322 318 315 314 313 312 311 311 310 309 310 309 309 310 312 311 313 315 321 327 328 331 334 329 336 332 333 360 14 22 31 43 39 22 36 50 54
322 318 315 312 312 311 310 310 310 309 309 308 307 308 308 309 309 310 314 319 322 324 320 321 330 343 0 18 25 26 34 40 46 50 51 52 56 61
319 316 312 310 309 308 308 308 307 305 305 304 304 305 307 308 306 307 312 315 318 323 328 336 346 357 6 14 26 37 41 46 53 58 59 59 65 68
Height
1444 1439 1435 1431 1426 1422 1417 1412 1405 1390 1378 1379 1379 1376 1374 1370 1367 1363 1358 1354 1349 1344 1338 1333 1329 1325 1321 1318 1315 1312 1309 1307 1305 1303 1302 1301 1300 1299
1438 1433 1429 1424 1419 1414 1409 1405 1401 1393 1379 1370 1369 1367 1363 1361 1358 1354 1348 1343 1338 1333 1327 1321 1317 1313 1309 1305 1303 1299 1297 1294 1292 1290 1288 1287 1286 1285
1432 1427 1422 1417 1412 1407 1402 1398 1394 1389 1378 1365 1361 1357 1353 1349 1344 1341 1337 1332 1326 1321 1316 1310 1305 1300 1296 1293 1289 1286 1283 1280 1278 1276 1274 1273 1272 1271
1426 1421 1416 1411 1406 1401 1396 1390 1386 1382 1375 1363 1354 1349 1344 1339 1334 1329 1325 1321 1315 1309 1303 1298 1293 1288 1284 1280 1276 1273 1269 1266 1264 1262 1260 1259 1259 1258
1421 1416 1411 1405 1399 1394 1389 1384 1379 1374 1369 1360 1350 1343 1336 1331 1324 1318 1313 1307 1302 1297 1291 1286 1281 1276 1271 1267 1263 1259 1255 1252 1250 1248 1246 1245 1245 1245
1416 1411 1406 1400 1394 1388 1383 1378 1373 1367 1360 1352 1343 1336 1329 1323 1317 1308 1299 1294 1289 1285 1279 1274 1270 1264 1259 1254 1249 1245 1241 1238 1235 1234 1233 1232 1231 1232
1410 1405 1400 1395 1390 1385 1379 1373 1366 1359 1352 1345 1336 1329 1322 1315 1309 1301 1292 1283 1277 1274 1267 1262 1257 1250 1244 1239 1235 1230 1227 1224 1222 1220 1219 1218 1218 1218
1403 1398 1394 1388 1383 1378 1373 1366 1361 1354 1345 1338 1330 1322 1314 1308 1301 1294 1285 1276 1265 1264 1258 1249 1246 1238 1232 1227 1221 1218 1214 1211 1208 1206 1205 1204 1204 1204
1398 1392 1387 1382 1377 1369 1362 1357 1352 1347 1341 1334 1324 1316 1308 1301 1294 1286 1279 1271 1261 1255 1250 1238 1234 1227 1220 1214 1209 1205 1201 1197 1194 1191 1190 1189 1189 1190
1393 1387 1381 1374 1369 1363 1356 1349 1342 1336 1331 1325 1318 1309 1302 1295 1289 1281 1272 1262 1253 1248 1243 1232 1223 1216 1208 1202 1196 1191 1187 1183 1179 1176 1175 1174 1175 1176
1387 1382 1376 1370 1363 1357 1350 1341 1334 1327 1322 1316 1309 1302 1295 1287 1281 1273 1265 1257 1246 1238 1234 1227 1215 1206 1197 1189 1183 1179 1174 1170 1166 1162 1160 1159 1160 1162
1379 1375 1370 1364 1357 1351 1344 1335 1327 1319 1313 1305 1299 1292 1285 1278 1273 1267 1260 1252 1242 1232 1225 1220 1209 1202 1187 1177 1172 1167 1160 1154 1150 1146 1143 1143 1145 1148
1375 1368 1362 1357 1351 1345 1338 1330 1323 1316 1307 1299 1291 1284 1278 1272 1266 1260 1254 1247 1239 1228 1221 1215 1205 1198 1190 1174 1162 1156 1149 1141 1135 1129 1126 1126 1128 1133
1371 1364 1357 1351 1345 1338 1331 1324 1319 1311 1302 1294 1287 1280 1273 1266 1259 1252 1246 1240 1233 1225 1216 1211 1202 1194 1185 1173 1160 1147 1139 1132 1125 1118 1114 1112 1114 1119
1367 1360 1353 1346 1338 1331 1325 1320 1313 1305 1298 1292 1285 1277 1270 1262 1254 1247 1239 1233 1225 1219 1212 1205 1198 1190 1182 1172 1160 1146 1135 1124 1118 1112 1108 1106 1107 1111
1360 1353 1347 1340 1333 1327 1321 1314 1308 1302 1297 1290 1282 1274 1266 1258 1251 1244 1236 1228 1219 1211 1207 1201 1193 1186 1176 1168 1159 1147 1137 1128 1119 1113 1108 1106 1106 1109
1355 1348 1341 1334 1328 1322 1316 1310 1304 1298 1292 1286 1278 1271 1263 1256 1248 1241 1234 1227 1220 1211 1202 1196 1189 1182 1175 1168 1158 1149 1140 1133 1126 1119 1113 1110 1109 1110
1351 1344 1337 1332 1326 1320 1313 1307 1301 1295 1289 1282 1276 1269 1261 1254 1246 1239 1233 1227 1219 1212 1205 1197 1189 1181 1176 1169 1164 1156 1148 1141 1134 1128 1122 1118 1116 1115
1347 1341 1335 1329 1323 1318 1311 1305 1298 1292 1286 1280 1273 1266 1260 1252 1246 1239 1232 1226 1220 1214 1207 1200 1194 1187 1181 1174 1169 1164 1157 1151 1145 1139 1133 1129 1126 1124
1344 1338 1332 1327 1321 1315 1309 1302 1295 1289 1283 1277 1271 1264 1258 1251 1245 1239 1233 1227 1221 1215 1209 1203 1198 1193 1188 1184 1178 1172 1167 1161 1155 1150 1146 1142 1138 1136
1340 1335 1329 1324 1318 1312 1306 1299 1293 1287 1281 1275 1268 1262 1256 1250 1244 1239 1234 1228 1223 1218 1212 1207 1203 1199 1195 1189 1185 1181 1177 1173 1168 1163 1158 1154 1151 1149
1337 1332 1326 1321 1315 1309 1303 1296 1290 1284 1278 1272 1266 1260 1255 1249 1244 1239 1234 1229 1224 1220 1216 1211 1207 1203 1199 1195 1192 1189 1187 1183 1179 1175 1172 1169 1166 1165
1334 1329 1323 1318 1312 1306 1300 1293 1287 1281 1276 1270 1264 1259 1253 1248 1243 1239 1235 1230 1226 1222 1218 1215 1211 1208 1205 1202 1199 1197 1194 1192 1190 1188 1186 1185 1182 1181